Date,TemperatureHighF,TemperatureAvgF,TemperatureLowF,DewpointHighF,DewpointAvgF,DewpointLowF,HumidityHigh,HumidityAvg,HumidityLow,PressureMaxIn,PressureMinIn,WindSpeedMaxMPH,WindSpeedAvgMPH,GustSpeedMaxMPH,PrecipitationSumIn
2013-10-1,75,64,57,63,58,55,95,84,62,30.15,30.06,0,0,5,0.00
2013-10-2,76,66,62,64,60,57,88,80,63,30.15,30.07,2,0,11,0.00
2013-10-3,77,67,62,65,61,58,90,82,65,30.12,30.06,0,0,6,0.00
2013-10-4,79,69,64,68,62,58,86,78,67,30.14,30.07,1,0,11,0.00
2013-10-5,80,70,65,68,63,61,87,80,60,30.12,30.02,1,0,6,0.00
2013-10-6,73,66,62,66,64,60,95,90,78,30.03,29.94,4,0,4,0.06
2013-10-7,66,61,57,64,58,49,99,89,72,29.98,29.78,4,1,17,1.34
2013-10-8,56,54,52,49,47,45,82,77,73,30.14,29.98,11,4,12,0.06
2013-10-9,68,56,50,52,46,41,82,68,51,30.23,30.14,2,1,15,0.00
2013-10-10,71,61,52,55,50,45,81,69,52,30.15,30.01,3,1,16,0.00
2013-10-11,74,64,59,56,53,51,78,68,47,30.02,29.93,4,2,16,0.00
2013-10-12,71,65,61,62,56,52,84,74,64,30.07,29.96,3,1,12,0.07
2013-10-13,67,63,60,62,60,58,97,90,83,30.19,30.08,1,0,9,0.19
2013-10-14,63,60,58,60,58,57,97,95,90,30.22,30.14,3,1,14,0.01
2013-10-19,59,56,53,57,55,48,99,95,77,29.97,29.86,1,0,7,0.02
2013-10-20,63,51,44,50,45,39,87,78,54,30.10,29.94,3,1,12,0.00
2013-10-21,62,53,47,54,49,44,94,87,71,30.16,30.02,1,0,7,0.00
2013-10-22,66,57,52,56,52,49,93,84,71,30.03,29.82,0,0,4,0.01
2013-10-23,60,49,38,48,39,30,91,70,46,29.98,29.74,4,1,18,0.00
2013-10-24,57,43,36,42,34,29,80,71,56,30.20,30.03,2,1,14,0.00
2013-10-25,48,42,32,37,27,24,84,56,41,30.38,30.20,9,2,21,0.00
2013-10-29,65,57,52,54,52,50,92,83,66,30.35,30.24,2,0,14,0.00
2013-10-30,73,61,57,60,56,52,91,82,61,30.29,30.17,0,0,7,0.06
2013-10-31,62,60,56,60,56,54,95,88,81,30.18,29.92,1,0,6,0.01